N7DTY Weather Reports


Display with metric or nautical units.
time (UTC)temp
F
wind
direction
speed
MPH
gust
MPH
rain 1hr
in
rain 24hr
in
rain mn
in
humidity
%
barometer
mb
20260505021549 67 173 2.0 9.0 0.00 0.00 0.00 54 1008.3
20260505020044 67 145 2.0 7.0 0.00 0.00 0.00 55 1008.3
20260505014535 67 146 2.0 8.0 0.00 0.00 0.00 57 1008.4
20260505013033 68 108 3.0 9.0 0.00 0.00 0.00 55 1008.5
20260505011547 67 269 0.0 3.0 0.00 0.00 0.00 59 1008.6
20260505010031 68 205 3.0 9.0 0.00 0.00 0.00 55 1008.7
20260505004541 69 188 3.0 8.0 0.00 0.00 0.00 58 1008.6
20260505003030 69 202 1.0 8.0 0.00 0.00 0.00 59 1008.6
20260505001532 70 232 3.0 9.0 0.00 0.00 0.00 54 1008.7
20260505000028 71 218 2.0 7.0 0.00 0.00 0.00 55 1008.9
20260504234528 71 173 1.0 7.0 0.00 0.00 0.00 53 1008.9
20260504233028 72 200 3.0 8.0 0.00 0.00 0.00 48 1009.0
20260504231527 72 178 3.0 8.0 0.00 0.00 0.00 48 1009.1
20260504230027 73 182 3.0 6.0 0.00 0.00 0.00 48 1009.4
20260504224525 73 167 2.0 6.0 0.00 0.00 0.00 48 1009.3
20260504223031 73 169 2.0 7.0 0.00 0.00 0.00 53 1009.4
20260504221525 72 209 2.0 6.0 0.00 0.00 0.00 53 1009.6
20260504220023 72 217 2.0 7.0 0.00 0.00 0.00 54 1009.7
20260504214519 71 197 2.0 6.0 0.00 0.00 0.00 58 1009.6
20260504213021 71 179 2.0 5.0 0.00 0.00 0.00 58 1009.6
20260504211519 71 221 3.0 7.0 0.00 0.00 0.00 58 1009.8
20260504210017 70 158 1.0 5.0 0.00 0.00 0.00 57 1009.9
20260504204518 70 148 1.0 7.0 0.00 0.00 0.00 57 1010.0
20260504203017 69 194 2.0 8.0 0.00 0.00 0.00 59 1010.1
20260504201515 70 193 3.0 8.0 0.00 0.00 0.00 60 1010.1
20260504200014 70 172 3.0 6.0 0.00 0.00 0.00 62 1010.3
20260504194509 67 169 2.0 7.0 0.00 0.00 0.00 62 1010.3
20260504193007 67 168 4.0 7.0 0.00 0.00 0.00 60 1010.3
20260504191512 68 169 1.0 6.0 0.00 0.00 0.00 65 1010.2
20260504190006 68 223 0.0 3.0 0.00 0.00 0.00 67 1010.2
20260504184503 68 199 1.0 7.0 0.00 0.00 0.00 68 1010.1
20260504183003 68 165 1.0 4.0 0.00 0.00 0.00 67 1010.2
20260504181609 66 187 1.0 5.0 0.00 0.00 0.00 70 1010.3
20260504180056 66 238 1.0 5.0 0.00 0.00 0.00 71 1010.2
20260504174552 64 192 1.0 6.0 0.00 0.00 0.00 71 1010.1
20260504173055 63 238 1.0 3.0 0.00 0.00 0.00 71 1010.2
20260504171549 63 178 1.0 3.0 0.00 0.00 0.00 70 1010.2
20260504100105 53 197 0.0 0.0 0.00 0.00 0.00 81 1009.4
20260504081551 54 197 0.0 0.0 0.00 0.00 0.00 81 1009.2
20260504044532 57 197 0.0 1.0 0.00 0.00 0.00 77 1009.3
20260504043039 58 197 0.0 0.0 0.00 0.00 0.00 76 1009.3
20260504041531 58 197 0.0 0.0 0.00 0.00 0.00 75 1009.4
20260504040031 59 197 0.0 1.0 0.00 0.00 0.00 75 1009.3
20260504034530 59 197 0.0 0.0 0.00 0.00 0.00 72 1009.2
20260504033030 60 197 0.0 0.0 0.00 0.00 0.00 70 1009.3
20260504031533 61 197 0.0 1.0 0.00 0.00 0.00 70 1009.3
20260504030028 62 186 0.0 0.0 0.00 0.00 0.00 71 1009.4
20260504024533 63 173 0.0 1.0 0.00 0.00 0.00 69 1009.3
20260504023027 64 173 0.0 1.0 0.00 0.00 0.00 70 1009.3